CAPE
0 0 0 0 0 0 0 2 0 3 44 59 0 1 0 26 103 42 78 11 127 438 1117 1509 2467 2286 1691 1628 1644 1534 1555 1490 1311 1178 981 785 690 658 696 497 679 738 692
0 0 0 0 0 0 0 0 0 0 5 1 5 0 0 0 0 0 0 3 164 122 461 1550 2260 2518 2189 1975 1601 1431 1430 1416 1347 1216 981 699 608 573 518 499 533 626 621
0 0 0 0 0 0 0 0 0 0 0 0 1 0 0 0 0 0 0 0 277 151 32 236 814 2041 1909 1839 1715 1385 1348 1222 1220 1189 998 754 541 492 361 368 455 539 580
0 0 0 0 0 0 0 0 0 0 0 0 0 0 0 0 1 1 0 0 248 134 5 32 149 334 410 1093 1421 1553 1304 1246 1058 1137 810 679 575 436 334 237 355 410 472
0 0 0 0 0 0 0 0 0 0 0 0 0 0 0 0 0 0 0 6 116 144 144 195 153 248 403 441 750 1397 1628 1347 1170 1076 974 657 514 443 343 247 243 308 309
0 0 0 0 0 0 0 0 0 0 0 0 0 0 0 0 0 0 0 0 50 114 179 182 205 51 9 111 205 760 1348 1588 1405 1370 1024 788 659 412 332 285 241 253 266
0 0 0 0 0 0 0 0 0 0 0 0 0 0 0 0 0 15 50 51 52 120 163 236 263 230 80 0 130 211 789 1493 1360 1227 958 742 739 478 318 263 257 211 231
0 0 0 0 0 0 0 0 0 0 0 0 0 1 0 0 0 0 0 19 76 54 110 127 133 151 184 146 102 86 342 610 1196 1185 907 598 590 406 315 266 234 213 186
0 0 0 0 0 0 0 0 0 0 0 0 0 2 2 0 0 0 0 0 0 0 0 0 0 1 25 109 201 42 7 21 164 625 651 869 676 353 296 308 270 216 173
0 0 0 0 0 0 0 0 0 0 0 0 0 0 0 1 3 0 0 0 0 0 0 0 0 0 0 0 2 36 71 14 0 5 139 347 561 462 411 319 285 268 226
0 0 0 0 0 0 0 0 0 0 0 1 0 3 1 0 0 7 0 0 0 0 0 0 0 0 0 0 0 0 0 0 0 0 0 12 202 389 394 439 343 279 268
0 0 0 0 0 0 0 0 0 0 0 0 0 2 5 8 3 8 7 2 2 0 0 0 0 0 0 0 0 0 0 0 0 0 2 1 2 49 195 337 472 395 343
0 0 0 0 0 0 0 0 0 0 0 0 0 0 0 1 2 5 8 6 6 1 3 0 0 0 0 0 0 0 0 0 0 0 0 0 2 0 1 27 217 481 426
0 0 0 0 0 0 0 0 0 0 0 0 0 0 0 1 0 3 9 15 5 2 4 2 1 0 0 0 0 3 0 0 0 0 0 0 0 1 1 0 9 183 278
0 0 0 0 0 0 0 0 0 0 0 0 0 0 0 0 0 0 1 4 12 5 2 3 10 1 0 0 0 0 0 0 0 0 0 0 0 0 0 0 0 0 0
0 0 0 0 0 0 0 0 0 0 0 0 0 0 0 0 0 0 1 11 15 13 9 7 5 1 0 0 0 0 0 0 0 0 0 0 0 0 0 0 0 0 0
0 0 0 0 0 0 0 0 0 0 0 0 0 0 1 0 0 0 0 6 2 10 10 4 0 0 0 0 0 0 0 0 0 0 0 0 0 0 0 0 0 0 1
0 0 0 0 0 0 0 0 0 0 0 1 0 1 4 2 0 0 2 0 4 2 17 14 1 8 3 0 2 0 2 0 0 0 0 0 0 1 0 1 1 0 1
0 0 0 0 0 0 0 0 0 0 0 2 1 2 7 5 1 0 6 1 1 5 4 9 9 8 5 3 1 1 0 0 0 0 0 0 3 2 0 0 0 0 0
0 0 0 0 0 0 0 0 0 0 0 0 1 1 6 3 8 5 6 9 2 4 3 4 4 7 7 3 5 7 1 3 3 0 0 4 3 6 5 4 5 4 1
0 0 0 0 0 0 0 0 0 0 0 0 0 0 5 5 7 9 12 8 5 4 7 7 7 6 5 4 6 5 9 4 3 1 1 7 7 5 6 3 4 6 5
0 0 0 0 0 1 1 0 0 0 0 0 0 0 0 1 0 2 5 6 7 5 3 6 8 7 5 6 4 3 7 4 7 0 2 6 3 5 7 7 8 5 8
0 0 0 0 0 0 2 0 0 0 0 0 0 0 0 0 0 0 0 0 2 6 7 6 5 4 5 4 4 3 3 10 6 4 2 4 0 1 2 5 6 8 6
0 0 0 0 0 0 3 1 0 0 0 0 0 0 0 0 0 0 0 0 0 0 0 3 0 0 0 1 2 4 5 2 8 0 1 0 2 0 0 0 9 8 8
0 0 0 0 0 0 1 1 0 0 0 0 0 0 0 0 5 7 0 0 0 0 0 4 4 3 2 4 2 1 2 1 2 2 0 0 2 0 0 0 0 2 9
0 0 0 0 0 0 2 0 0 0 0 0 0 0 4 1 6 7 0 0 0 0 0 0 0 0 0 0 1 0 0 0 0 0 0 0 0 0 0 2 2 0 0
CIN
0 0 0 0 0 0 0 0 0 0 -90 -146 0 0 0 -234 -213 -293 -354 -298 -366 -219 -89 -60 -6 -7 -23 -37 -30 -17 -4 -8 -14 -9 -16 -28 -25 -24 -17 -23 -17 -9 -5
0 0 0 0 0 0 0 0 0 0 -2 -6 -48 0 0 0 0 0 0 -149 -223 -202 -146 -73 -44 -9 -9 -26 -46 -39 -18 -6 -11 -12 -15 -28 -34 -39 -35 -30 -28 -15 -12
0 0 0 0 0 0 0 0 0 0 0 0 0 0 0 0 0 0 0 0 -98 -148 -178 -191 -158 -40 -16 -17 -32 -52 -40 -27 -14 -12 -15 -19 -37 -57 -67 -51 -41 -26 -19
0 0 0 0 0 0 0 0 0 0 0 0 0 0 0 0 0 0 0 0 -80 -92 -81 -189 -191 -215 -177 -32 -3 -22 -35 -34 -31 -12 -33 -37 -31 -47 -73 -85 -55 -45 -37
0 0 0 0 0 0 0 0 0 0 0 0 0 0 0 0 0 0 0 -93 -112 -73 -86 -102 -153 -146 -109 -59 -11 -2 -5 -23 -33 -35 -34 -40 -42 -46 -48 -83 -77 -51 -56
0 0 0 0 0 0 0 0 0 0 0 0 0 0 0 0 0 0 0 0 -160 -128 -90 -87 -100 -162 -61 -110 -67 -16 -7 -4 -11 -11 -11 -16 -29 -41 -64 -59 -73 -68 -48
0 0 0 0 0 0 0 0 0 0 0 0 0 0 0 0 0 -308 -168 -166 -186 -124 -85 -72 -79 -77 -90 -1 -62 -142 0 0 -3 -11 -30 -21 -2 -18 -51 -77 -75 -84 -67
0 0 0 0 0 0 0 0 0 0 0 0 0 0 0 0 0 0 0 -153 -160 -137 -36 -18 -30 -51 -50 -70 -65 -42 -53 -5 0 -4 -21 -51 -38 -20 -33 -65 -80 -79 -88
0 0 0 0 0 0 0 0 0 0 0 0 0 0 0 0 0 0 0 0 0 0 0 0 0 0 -20 -21 -4 -70 -64 -49 -72 -24 -12 -19 -41 -17 -24 -50 -59 -70 -82
0 0 0 0 0 0 0 0 0 0 -1 0 0 0 0 0 0 0 0 0 0 0 0 0 0 0 0 0 -3 -54 -30 -98 0 -23 -62 -22 -13 -6 -10 -14 -43 -57 -59
0 0 0 0 0 0 0 0 0 0 0 0 0 0 -2 0 0 0 0 0 0 0 0 0 0 0 0 0 0 0 0 0 0 0 0 -82 -17 -16 -9 -14 -21 -37 -48
0 0 0 0 0 0 0 0 0 0 0 0 0 0 0 0 0 0 0 0 0 0 0 0 0 0 0 0 0 0 0 0 0 0 0 0 0 -49 -21 -13 -15 -18 -19
0 0 0 0 0 0 0 0 0 0 0 0 0 0 0 0 0 0 0 0 0 0 0 0 0 0 0 0 0 0 0 0 0 0 0 0 0 0 0 -64 -29 -17 -16
0 0 0 0 0 0 0 0 0 0 0 0 0 0 0 0 0 0 0 0 0 0 0 0 -1 0 0 0 0 -5 0 0 0 0 0 0 0 0 0 0 -31 -18 -21
0 0 0 0 0 0 0 0 0 0 0 0 0 0 0 0 0 0 0 0 0 0 0 0 0 -2 0 0 0 0 0 0 0 0 0 0 0 0 0 0 0 0 0
0 0 0 0 0 0 0 0 0 0 0 0 0 0 0 0 0 0 -1 0 0 0 0 0 0 0 0 0 0 0 0 0 0 0 0 0 0 0 0 0 0 0 0
0 0 0 0 0 0 0 0 0 0 0 0 0 0 0 0 0 0 0 0 0 0 0 0 0 0 0 0 0 0 0 0 0 0 0 0 0 0 0 0 0 0 0
0 0 0 0 0 0 0 0 0 0 0 0 0 0 0 0 0 0 0 0 0 0 0 0 -1 0 0 -1 0 0 -3 -1 0 0 0 0 0 0 0 0 0 0 0
0 0 0 0 0 0 0 0 0 0 0 0 0 0 0 0 0 0 0 0 0 0 0 0 0 0 0 0 0 0 0 0 0 0 0 0 0 0 0 0 0 0 0
0 0 0 0 0 0 0 0 0 0 0 0 0 0 0 0 0 -1 0 0 0 0 0 0 0 0 0 0 0 0 0 0 0 0 0 0 0 0 0 0 0 0 0
0 0 0 0 0 0 0 0 0 0 0 0 0 0 0 0 0 0 0 0 0 0 0 0 0 0 0 0 0 0 0 0 0 0 0 0 0 0 0 0 0 0 0
0 0 0 0 0 0 0 0 0 0 0 0 0 0 0 0 0 0 0 0 0 0 0 0 0 0 0 0 0 0 0 0 0 0 0 0 0 0 0 0 0 0 0
0 0 0 0 0 0 0 0 0 0 0 0 0 0 0 0 0 0 0 0 0 0 0 0 0 0 0 0 0 0 0 0 0 0 0 0 -1 0 0 0 0 0 0
0 0 0 0 0 0 0 0 0 0 0 0 0 0 0 0 0 0 0 0 0 0 0 0 0 -1 -1 -1 0 0 0 0 0 -1 0 0 -2 -1 0 0 0 0 0
0 0 0 0 0 0 0 0 0 0 0 0 0 0 0 0 -1 0 0 0 0 0 0 0 0 0 0 0 0 0 0 0 0 0 0 0 -1 0 0 0 0 0 0
0 0 0 0 0 0 0 0 0 0 0 0 0 0 0 -1 0 0 0 0 0 0 0 0 0 0 0 0 0 0 -1 0 0 0 0 0 0 0 0 -3 -1 -2 -1
Wind_Speed
6 5 5 5 5 5 5 6 6 5 4 2 3 6 8 11 14 10 9 18 24 17 22 20 19 23 23 21 21 20 20 20 20 20 20 20 19 18 17 16 17 16 16
6 6 6 7 7 5 5 5 5 6 5 2 4 4 5 6 7 8 7 7 9 14 16 18 17 23 23 22 21 21 20 20 20 21 20 20 21 19 18 17 18 19 18
8 8 7 8 8 7 9 7 6 5 5 6 5 6 6 8 8 8 8 6 5 6 12 13 8 17 19 20 20 21 21 20 20 20 21 21 21 20 19 19 19 19 20
10 8 7 7 7 7 7 7 7 7 5 5 5 7 6 6 9 9 8 6 6 4 8 9 8 5 4 13 24 22 23 22 21 20 20 20 21 21 21 20 20 20 21
10 7 6 7 8 7 7 7 7 6 6 7 8 8 7 6 6 6 7 9 10 7 5 6 7 10 10 15 19 24 23 23 23 23 22 20 20 22 22 22 22 21 21
10 7 6 7 7 6 7 7 7 7 3 7 9 8 7 7 5 6 7 8 8 7 7 6 6 5 13 18 20 18 20 23 21 18 18 21 23 23 24 24 24 24 22
7 8 5 6 6 7 7 8 6 7 3 10 5 6 5 6 6 5 4 5 6 6 5 7 7 5 7 19 16 18 23 26 22 23 22 23 25 26 25 26 26 26 25
9 8 8 7 7 6 7 8 8 5 3 7 4 3 6 6 5 5 4 4 6 4 4 5 5 5 5 4 9 19 18 21 27 26 26 24 23 28 26 26 26 27 27
8 8 8 7 7 6 6 6 7 7 5 3 6 3 4 4 8 4 5 5 7 6 7 9 11 10 8 4 5 7 13 16 22 23 26 25 24 28 27 26 27 27 27
8 8 9 8 7 5 7 7 6 6 6 6 5 6 6 5 4 8 3 2 5 8 10 9 9 9 9 7 9 9 10 11 16 19 20 22 23 27 28 27 27 28 27
8 8 8 8 8 6 7 7 7 7 6 5 5 6 4 5 6 5 11 7 10 6 8 8 8 8 10 9 8 9 15 13 13 16 19 20 21 24 27 27 26 27 27
5 8 7 7 6 6 7 5 7 8 6 6 6 6 6 4 7 6 8 14 14 8 11 7 8 7 8 7 12 14 14 13 15 17 18 19 20 21 22 24 25 26 27
3 7 7 7 6 7 8 7 7 7 8 7 7 5 5 6 6 6 8 10 11 10 9 8 7 7 8 5 8 16 14 14 13 14 16 18 20 21 19 20 23 27 27
4 6 6 7 8 8 7 7 6 5 7 6 8 8 5 6 7 7 6 9 12 9 10 9 11 7 8 9 13 15 11 12 13 14 19 15 14 19 20 19 18 18 20
5 5 6 6 7 7 6 5 5 6 6 6 7 7 6 6 6 5 6 6 6 8 12 7 8 11 14 13 16 16 15 20 22 21 18 16 15 15 18 19 19 20 22
6 7 6 6 6 5 6 5 5 6 6 6 5 7 7 5 6 5 5 6 7 8 8 9 10 13 12 11 15 17 15 18 15 14 15 15 15 15 16 18 19 20 21
6 7 6 6 5 7 7 6 5 7 8 8 8 8 9 8 6 6 6 6 6 7 10 9 10 12 15 16 15 13 12 10 7 10 11 13 17 16 16 18 19 19 18
6 5 4 5 6 7 7 7 7 7 9 9 9 10 10 8 9 8 6 9 8 9 9 13 11 11 11 13 12 12 9 7 7 8 13 17 17 19 13 16 17 17 13
6 5 6 5 6 7 6 6 7 8 8 9 10 10 11 11 9 9 8 10 9 10 8 8 9 10 10 12 13 11 9 8 7 14 14 13 17 21 24 21 17 12 9
6 6 6 6 4 7 7 7 8 8 8 9 10 10 10 11 10 11 10 11 10 10 10 8 8 9 10 13 9 10 10 7 8 9 12 10 14 17 22 20 23 23 20
6 6 7 7 5 7 6 6 7 8 9 9 9 10 10 16 18 14 8 9 11 9 8 9 9 9 10 14 12 8 9 8 2 9 7 8 8 8 12 17 18 24 22
7 6 7 6 6 6 12 13 8 7 9 8 7 8 9 14 15 18 17 17 15 11 11 10 9 12 14 13 12 11 9 6 4 11 8 5 8 9 8 10 23 24 24
5 6 6 6 5 4 12 12 12 5 6 5 6 5 8 7 13 11 15 17 16 19 19 10 12 12 12 14 14 12 13 5 6 9 8 4 8 6 8 11 24 26 26
5 3 5 5 5 3 11 11 11 6 5 5 6 6 4 7 14 11 9 10 9 10 12 10 10 11 11 14 14 11 12 9 2 7 15 4 8 4 3 7 24 25 26
5 4 2 6 5 5 10 10 7 5 6 7 6 8 4 6 20 21 9 9 10 11 13 20 21 23 24 27 24 11 14 12 4 6 14 5 8 6 2 6 11 24 23
3 3 5 5 9 7 7 12 8 2 5 5 7 8 18 15 20 21 9 9 11 11 11 13 13 16 17 18 26 15 11 11 8 5 11 9 9 7 4 5 10 11 11
Wind_Direction
21 4 13 18 18 1 355 19 357 334 354 347 181 175 188 181 202 207 229 225 223 222 250 240 230 222 217 207 208 213 211 207 202 203 201 201 202 204 205 203 193 193 193
16 16 15 13 8 1 348 18 353 334 335 308 252 240 252 266 242 248 260 274 246 245 254 244 228 214 219 212 208 212 214 214 208 207 208 206 203 203 203 200 197 197 195
23 22 19 10 358 356 4 5 358 346 2 342 298 270 260 248 262 258 253 265 276 247 252 237 215 214 214 220 220 211 212 214 215 212 210 210 209 205 203 203 203 201 201
30 31 26 14 359 6 9 360 357 348 348 338 322 299 278 252 264 248 250 252 250 247 246 241 250 222 254 253 234 225 217 213 213 217 217 214 211 212 207 205 206 204 205
31 36 28 10 1 7 11 3 353 0 333 342 316 296 280 272 235 248 251 250 242 241 252 253 245 226 228 248 257 243 226 219 215 216 216 219 215 214 213 209 209 209 207
30 29 24 15 8 15 9 2 355 346 315 340 310 298 293 279 257 232 241 242 244 236 235 248 255 243 236 232 235 258 249 233 224 223 233 230 222 219 214 213 213 212 212
23 25 19 15 14 20 4 4 347 356 337 353 326 335 300 275 275 268 244 250 252 251 254 249 243 236 229 225 226 250 261 254 232 223 222 233 243 226 217 215 214 215 213
22 27 14 8 7 8 8 3 13 355 340 4 346 298 326 331 358 330 315 301 301 334 312 297 284 265 248 226 228 225 242 258 254 232 226 224 237 236 222 217 217 216 216
14 13 12 7 358 5 360 354 8 5 358 338 346 354 338 320 330 328 7 15 18 17 11 9 4 357 341 307 267 245 246 243 251 248 241 235 227 242 232 217 218 218 218
18 14 8 8 4 4 1 1 2 354 360 356 346 14 346 308 312 315 318 353 32 8 5 345 358 347 342 344 323 297 280 263 260 257 257 252 247 243 237 232 220 217 219
19 14 17 10 10 7 0 356 359 8 11 3 1 351 329 319 274 284 293 316 334 351 334 351 329 337 345 338 320 321 337 315 291 273 266 260 257 248 243 236 228 220 218
15 18 11 15 9 3 351 344 15 17 6 12 5 10 5 348 346 324 310 311 305 313 338 324 335 320 322 321 326 329 345 348 350 337 317 290 268 256 254 239 231 229 225
34 25 1 7 11 7 358 2 17 16 12 2 12 5 5 355 338 323 314 311 306 313 309 315 327 315 322 328 335 325 329 331 334 336 335 328 307 282 266 261 246 231 224
48 35 15 6 7 7 8 20 16 19 19 1 9 0 359 7 356 338 320 320 314 301 313 321 309 284 343 332 324 327 327 314 328 327 322 311 310 301 282 261 253 234 221
59 45 24 14 0 0 3 26 28 18 23 8 10 357 6 352 339 331 322 315 300 307 308 321 307 334 317 312 307 306 302 302 302 299 298 299 298 295 289 273 261 255 245
47 39 28 9 354 355 357 24 29 19 24 20 17 9 358 337 327 323 329 318 326 320 303 332 314 308 300 289 288 290 285 286 293 288 290 296 300 295 288 271 256 249 248
51 48 20 353 6 10 19 28 29 31 26 20 10 6 1 344 351 345 336 356 333 333 309 310 299 297 296 289 283 280 281 290 283 281 308 325 306 293 282 273 259 247 239
49 52 28 356 17 44 30 29 33 29 33 24 9 8 2 2 359 353 355 356 343 323 323 318 317 335 310 293 329 320 328 317 328 332 330 333 318 300 282 272 265 259 250
51 30 21 12 47 37 32 35 33 28 32 27 19 9 7 6 1 351 8 1 350 336 336 326 339 338 345 348 334 333 325 316 336 345 344 345 24 38 46 33 22 355 308
61 32 19 8 65 55 36 34 39 33 30 30 25 11 7 16 8 354 13 6 353 346 343 345 351 349 351 348 341 333 329 331 332 359 343 11 13 29 44 38 29 25 21
52 37 29 10 4 63 47 34 39 40 37 31 22 21 9 27 26 20 17 12 1 0 352 349 360 356 360 354 351 329 311 319 106 26 337 17 9 14 27 26 29 23 25
57 48 34 14 10 61 56 54 45 45 39 21 11 7 15 26 25 24 25 27 20 10 10 1 5 6 359 352 341 331 332 325 3 22 337 33 3 24 23 26 29 28 25
61 47 34 20 1 341 57 56 46 23 36 2 0 354 13 15 37 18 17 24 19 17 26 12 11 7 356 352 346 341 342 19 58 8 349 12 7 27 22 26 27 29 27
67 46 13 4 19 2 65 54 39 14 16 3 1 341 351 1 38 32 13 17 9 7 14 21 17 13 7 4 5 344 347 334 60 40 8 4 357 348 21 40 31 25 24
60 41 348 6 17 356 73 67 43 17 14 4 359 354 41 24 38 36 21 21 14 13 5 19 22 22 22 19 21 3 15 11 359 20 14 326 357 328 318 39 25 17 19
84 41 28 5 9 354 21 75 59 23 29 8 2 4 26 44 39 42 27 26 25 4 357 1 10 11 14 12 16 21 7 19 1 0 354 345 350 343 344 23 22 8 358